Location: Franzen
(48.6167°N, 15.3833°E)
Time: 23:50:42
(UTC+00:00)

Cosmos 2219 - Pass Details

Date: 04 August 2021
Orbit: 834 x 859 km, 71.1° (Epoch: 22 September)

Event Time Altitude Azimuth Distance (km) Brightness Sun altitude
Exits shadow 23:02:26 34° 245° (WSW) 1,391 4.1 -24.4°
Maximum altitude 23:04:43 54° 304° (WNW) 1,039 3.8 -24.4°
Drops below altitude 10° 23:10:22 10° 21° (NNE) 2,506 6.6 -24.4°
Sets 23:12:54 0° 26° (NNE) 3,446 7.4 -24.4°
